teraz jesteś w wynikionline.pl       przejdź do: chronosports.plbiurozawodow.pl            polskienglish

wyniki online i klasyfikacje zawodów sportowych

Wyniki oficjalne zawodów wróć

Wyniki oficjalne Legionowska Dycha 2014 w dniu 08.06.2014

Tabela wyników: open

open - K16 - K20 - K30 - K40 - K50 - K60 - M16 - M20 - M30 - M40 - M50 - M60 - M70 - open kobiet - open mężczyzn

Tabela wyników: open

miejsce numer zawodnik rocznik miejscowość kraj klub wynik netto strata
299 534 MARCIN TOFEL 1982 WARSZAWA 00:55:27 00:54:46 00:24:50
301 563 WALDEMAR WIELOCHA 1960 WARSZAWA 00:55:31 00:55:07 00:24:54
302 416 MARTA SIERPINSKA 1969 WARSZAWA 00:55:32 00:55:23 00:24:55
303 491 RAFAŁ GLIWA 1975 BOROWA GÓRA 00:55:45 00:55:31 00:25:08
304 420 TOMASZ PANUFNIK 1981 BOROWA GÓRA 00:55:46 00:55:29 00:25:09
305 316 ZBIGNIEW MODRZEJEWSKI 1969 LEGIONOWO 00:55:49 00:55:25 00:25:12
306 107 MAREK KINASIEWICZ 1952 SKIERDY 00:55:50 00:55:22 00:25:13
307 135 PRZEMYSŁAW LIPCZYŃSKI 1988 KAZUŃ NOWY 00:55:53 00:55:31 00:25:16
308 434 MONIKA FICOŃ 1972 WARSZAWA 00:55:54 00:55:29 00:25:17
308 380 BARTOSZ SZCZYCIŃSKI 1986 LEGIONOWO 00:55:54 00:55:12 00:25:17
310 100 ŁUKASZ WOJNOWSKI 1985 LEGIONOWO 00:55:57 00:55:30 00:25:20
311 239 JAROSŁAW SIUCHTA 1984 LEGIONOWO 00:55:59 00:55:25 00:25:22
312 63 SEBASTIAN KOWALSKI 1994 LEGIONOWO 00:56:00 00:55:26 00:25:23
313 25 MICHAŁ ANTONIAK 1980 WARSZAWA 00:56:01 00:55:35 00:25:24
313 193 JOANNA SUMIŃSKA 1981 JABŁONNA 00:56:01 00:55:31 00:25:24
315 521 ANNA DURIASZ - JANKOWSKA 1971 WARSZAWA 00:56:03 00:55:54 00:25:26
316 407 PRZEMYSŁAW KRAJEWSKI 1973 WARSZAWA 00:56:04 00:55:39 00:25:27
317 357 ŁUKASZ WILCZYŃSKI 1984 WARSZAWA 00:56:05 00:55:51 00:25:28
318 507 BEATA KOSIERB 1970 RADZYMIN 00:56:07 00:55:56 00:25:30
319 177 JOANNA ODOLCZYK 1965 WARSZAWA 00:56:10 00:55:49 00:25:33
320 154 ANDRZEJ KRAWIEC 1976 POZNAŃ 00:56:23 00:55:50 00:25:46
321 428 TOMASZ CZARNOCKI 1971 LEGIONOWO 00:56:28 00:56:13 00:25:51
321 74 JACEK WODYCZKO 1965 CHOTOMÓW 00:56:28 00:55:36 00:25:51
323 277 BARTŁOMIEJ SADOWSKI 1978 LEGIONOWO 00:56:30 00:55:59 00:25:53
324 469 ŁUKASZ TKACZEWSKI 1985 WARSZAWA 00:56:31 00:56:01 00:25:54
324 471 ANNA SZYMBORSKA 1977 WARSZAWA 00:56:31 00:55:59 00:25:54
326 443 HUBERT WYSOCKI 1987 LEGIONOWO 00:56:33 00:56:21 00:25:56
326 374 PAWEŁ KOZŁOWSKI 1979 DUCZKI 00:56:33 00:55:46 00:25:56
328 223 RAFAL ROGUSKI 1978 LEGIONOWO 00:56:35 00:56:23 00:25:58
328 119 MICHAŁ TOMASIAK 1992 WARSZAWA 00:56:35 00:56:23 00:25:58
330 203 PRZEMYSŁAW WOŹNIAK 1984 LEGIONOWO 00:56:36 00:55:56 00:25:59
331 406 MONIKA TURCZYŃSKA 1973 WARSZAWA 00:56:48 00:56:22 00:26:11
332 391 ARTUR BARGIEŁ 1972 KĄTY 00:56:50 00:56:28 00:26:13
333 425 JAKUB SOBACZYŃSKI 1972 LEGIONOWO 00:56:57 00:56:21 00:26:20
334 361 GRZEGORZ SKŁODOWSKI 1981 LEGIONOWO 00:57:08 00:56:23 00:26:31
335 503 TOMASZ STAŃCZYK 1967 RAWA MAZOWIECKA 00:57:09 00:56:59 00:26:32
336 258 ADAM TARUŁKA 1980 LEGIONOWO 00:57:10 00:56:25 00:26:33
337 194 ANDRZEJ MAKAREWICZ 1981 WARSZAWA 00:57:17 00:56:56 00:26:40
338 254 PAWEŁ DEWISZEK 1966 WARSZAWA 00:57:25 00:56:46 00:26:48
339 309 ŁUKASZ KOWALIK 1980 LEGIONOWO 00:57:27 00:57:07 00:26:50
340 32 MARIUSZ MÓWIŃSKI 1975 JABŁONNA 00:57:35 00:57:22 00:26:58
341 373 ADAM GRZYWACZEWSKI 1949 LEGIONOWO 00:57:43 00:57:03 00:27:06
342 445 ŁUKASZ CZERWIŃSKI 1992 ROGOZINO 00:57:52 00:57:17 00:27:15
343 242 BARBARA SKOMAROWSKA 1985 LEGIONOWO 00:57:57 00:57:37 00:27:20
344 103 ARTUR JANIKOWSKI 1973 LEGIONOWO 00:58:04 00:57:42 00:27:27
345 261 SYLWIA OKUROWSKA 1982 LEGIONOWO 00:58:06 00:57:45 00:27:29
346 343 0000 00:58:07 00:57:44 00:27:30
347 339 JERZY STĘPCZYŃSKI 1947 OSTRÓW MAZOWIECKA 00:58:14 00:57:58 00:27:37
348 395 TOMASZ WOJCIECHOWSKI 1966 LEGIONOWO 00:58:19 00:57:43 00:27:42
349 468 TOMASZ DŁUŻNIEWSKI 1973 LEGIONOWO 00:58:29 00:57:58 00:27:52

« poprzednia 1 2 3 4 5 6 7 8 9 10 następna »

Statystyka wyników w open

najlepszy wynik 00:30:37
najgorszy wynik 01:26:10

Statystyka prędkości w open

najwyższa śr. prędkość 19.59 km/h
najniższa śr. prędkość 6.96 km/h

Statystyka tempa w open

najlepsze śr. tempo 00:03:04 min/km
najgorsze śr. tempo 00:08:38 min/km